Regional Weather Roundup
Issued by NWS Green Bay, WI

Home | Current Version | Previous Version | Graphics & Text | Print | Product List | Glossary Off
Versions: 1 2 3 4 5 6 7 8 9 10 11 12 13 14 15 16 17 18 19 20 21 22 23 24 25 26 27 28 29 30 31 32 33 34 35 36 37 38 39 40 41 42 43 44 45 46 47 48 49 50

561
ASUS43 KGRB 130411
RWRGRB

NORTH-CENTRAL AND NORTHEAST WISCONSIN REGIONAL WEATHER ROUNDUP
NATIONAL WEATHER SERVICE GREEN BAY WI
1000 PM CST TUE DEC 12 2017

WIZ005-009-010>012-018-019-130500-
NORTH CENTRAL WISCONSIN

CITY           SKY/WX    TMP DP  RH WIND       PRES   REMARKS
IRONWOOD       FLURRIES  10   6  84 S5        29.78F WCI   2
MANITOWISH WTR LGT SNOW   9   6  90 S5        29.75F WCI   0
ARBOR VITAE    LGT SNOW  11   7  82 S3        29.76F
EAGLE RIVER    CLOUDY    10   3  74 CALM      29.77F
LAND O LAKES   CLOUDY     8   4  82 CALM      29.78F
RHINELANDER    LGT SNOW  11   5  77 SW7       29.79F WCI   0
PHILLIPS       FLURRIES  10   5  79 S7        29.77F WCI   0
ANTIGO         CLOUDY    11   2  66 SW5       29.81F WCI   3
TOMAHAWK       LGT SNOW  10   6  82 CALM      29.80F
MERRILL        LGT SNOW  11   6  79 CALM      29.83F
$$

WIZ013-073-130500-
NORTHEAST WISCONSIN

CITY           SKY/WX    TMP DP  RH WIND       PRES   REMARKS
IRON MOUNTAIN  PTCLDY    10   3  73 CALM      29.82F
MARINETTE      MOCLDY     9   4  80 CALM      29.90F
OCONTO         CLOUDY    10   6  82 CALM      29.90F
$$

WIZ017-030-035>037-045-130500-
CENTRAL WISCONSIN

CITY           SKY/WX    TMP DP  RH WIND       PRES   REMARKS
MEDFORD        CLOUDY    11   6  81 S7        29.79F WCI   1
WAUSAU         LGT SNOW  12   6  77 S7        29.82F WCI   1
MOSINEE        LGT SNOW  12   7  79 S6        29.84F WCI   3
MARSHFIELD     FLURRIES  13   7  77 S6        29.80F WCI   4
WISC RAPIDS    FLURRIES  15   7  70 SE3       29.86F
STEVENS POINT  MIX PCPN  12   5  73 S6        29.85F WCI   3
WAUPACA        FLURRIES  17   4  55 SW3       29.89F
SHAWANO        CLOUDY    17   3  55 CALM      29.89F
CLINTONVILLE   CLOUDY    16   0  48 CALM      29.89F
WAUTOMA        FLURRIES  15   6  67 S5        29.90F WCI   8
$$

WIZ038-039-048-051-130500-
FOX VALLEY

CITY           SKY/WX    TMP DP  RH WIND       PRES   REMARKS
NWS GREEN BAY  CLOUDY    16   3  56 W5        29.91F WCI   9
APPLETON       CLOUDY    16   0  48 W3        29.88F
OSHKOSH        CLOUDY    16   4  59 SW3       29.89F
FOND DU LAC    CLOUDY    17   4  56 CALM      29.91F
$$

WIZ022-050-052-130500-
EAST CENTRAL WISCONSIN

CITY           SKY/WX    TMP DP  RH WIND       PRES   REMARKS
EPHRAIM        CLOUDY    14   4  64 CALM      29.87F
WASHINGTON ISL CLOUDY    15   4  62 NW5       29.88F WCI   7
STURGEON BAY   PTCLDY    15   5  64 W3        29.90F
MANITOWOC      CLOUDY    14   5  67 W5        29.92F WCI   6
SHEBOYGAN      CLOUDY    16   4  59 CALM      29.91F
$$

LMZ563-521-522-541>543-130500-
LAKESHORE

STATION/POSITION TIME  TEMP    WIND        PRES    VSBY  WAVE
                       AIR SEA DIR/SP/G                  HT/PER
                 (UTC) (F)     (DEG/KT/KT) (MB)    (MI)  (FT/S)
SHEBOYGAN LKSHOR 0400   16     300/  4/  5 1014.4F
KEWAUNEE LKSHORE 0348   14     270/  3/  5 1012.4F
NORTHPORT PIER   0339   17     320/  5/ 15 1012.2F
MENOMINEE LKSHOR 0348   14     280/  4/  6 1012.4F
$$




USA.gov is the U.S. government's official web portal to all federal, state and local government web resources and services.